owner,sensor,date,latitude,longitude,vertical_datum,mass_concentration_of_oxygen_in_sea_water,qcFlag 
SCCF RECON,ioos:station:SCCF:11:1,2016-03-09T21:00:00Z,26.4679,-82.0631,1.0,-9999.0,1111122 
SCCF RECON,ioos:station:SCCF:11:1,2016-03-09T22:00:00Z,26.4679,-82.0631,1.0,-9999.0,1111122 
SCCF RECON,ioos:station:SCCF:11:1,2016-03-09T23:00:00Z,26.4679,-82.0631,1.0,-9999.0,1111122 
SCCF RECON,ioos:station:SCCF:11:1,2016-03-10T00:00:00Z,26.4679,-82.0631,1.0,-9999.0,1111122 
SCCF RECON,ioos:station:SCCF:11:1,2016-03-10T01:00:00Z,26.4679,-82.0631,1.0,-9999.0,1111122 
SCCF RECON,ioos:station:SCCF:11:1,2016-03-10T02:00:00Z,26.4679,-82.0631,1.0,-9999.0,1111122 
SCCF RECON,ioos:station:SCCF:11:1,2016-03-10T03:00:00Z,26.4679,-82.0631,1.0,-9999.0,1111122 
SCCF RECON,ioos:station:SCCF:11:1,2016-03-10T04:00:00Z,26.4679,-82.0631,1.0,-9999.0,1111122 
SCCF RECON,ioos:station:SCCF:11:1,2016-03-10T05:00:00Z,26.4679,-82.0631,1.0,-9999.0,1111122 
SCCF RECON,ioos:station:SCCF:11:1,2016-03-10T06:00:00Z,26.4679,-82.0631,1.0,-9999.0,1111122 
SCCF RECON,ioos:station:SCCF:11:1,2016-03-10T07:00:00Z,26.4679,-82.0631,1.0,-9999.0,1111122 
SCCF RECON,ioos:station:SCCF:11:1,2016-03-10T08:00:00Z,26.4679,-82.0631,1.0,-9999.0,1111122 
SCCF RECON,ioos:station:SCCF:11:1,2016-03-10T09:00:00Z,26.4679,-82.0631,1.0,-9999.0,1111122 
SCCF RECON,ioos:station:SCCF:11:1,2016-03-10T10:00:00Z,26.4679,-82.0631,1.0,-9999.0,1111122 
SCCF RECON,ioos:station:SCCF:11:1,2016-03-10T11:00:00Z,26.4679,-82.0631,1.0,-9999.0,1111122 
SCCF RECON,ioos:station:SCCF:11:1,2016-03-10T12:00:00Z,26.4679,-82.0631,1.0,-9999.0,1111122 
SCCF RECON,ioos:station:SCCF:11:1,2016-03-10T13:00:00Z,26.4679,-82.0631,1.0,-9999.0,1111122 
SCCF RECON,ioos:station:SCCF:11:1,2016-03-10T14:00:00Z,26.4679,-82.0631,1.0,-9999.0,1111122 
SCCF RECON,ioos:station:SCCF:11:1,2016-03-10T15:00:00Z,26.4679,-82.0631,1.802,7.01,1111122 
SCCF RECON,ioos:station:SCCF:11:1,2016-03-10T16:00:00Z,26.4679,-82.0631,1.997,7.43,1111122 
SCCF RECON,ioos:station:SCCF:11:1,2016-03-10T17:00:00Z,26.4679,-82.0631,2.13,7.17,1111122 
SCCF RECON,ioos:station:SCCF:11:1,2016-03-10T18:00:00Z,26.4679,-82.0631,2.231,7.18,1111122 
SCCF RECON,ioos:station:SCCF:11:1,2016-03-10T19:00:00Z,26.4679,-82.0631,2.296,7.18,1111122 
SCCF RECON,ioos:station:SCCF:11:1,2016-03-10T20:00:00Z,26.4679,-82.0631,2.266,7.15,1111122 
SCCF RECON,ioos:station:SCCF:11:1,2016-03-10T21:00:00Z,26.4679,-82.0631,2.112,8.19,1111122 
SCCF RECON,ioos:station:SCCF:11:1,2016-03-10T22:00:00Z,26.4679,-82.0631,1.948,7.95,1111122 
SCCF RECON,ioos:station:SCCF:11:1,2016-03-10T23:00:00Z,26.4679,-82.0631,1.812,7.85,1111122 
SCCF RECON,ioos:station:SCCF:11:1,2016-03-11T00:00:00Z,26.4679,-82.0631,1.69,7.7,1111122 
SCCF RECON,ioos:station:SCCF:11:1,2016-03-11T01:00:00Z,26.4679,-82.0631,1.588,7.53,1111122 
SCCF RECON,ioos:station:SCCF:11:1,2016-03-11T02:00:00Z,26.4679,-82.0631,1.56,7.4,1111122 
SCCF RECON,ioos:station:SCCF:11:1,2016-03-11T03:00:00Z,26.4679,-82.0631,1.7,6.89,1111122 
SCCF RECON,ioos:station:SCCF:11:1,2016-03-11T04:00:00Z,26.4679,-82.0631,1.925,7.38,1111122 
SCCF RECON,ioos:station:SCCF:11:1,2016-03-11T05:00:00Z,26.4679,-82.0631,2.104,7.32,1111122 
SCCF RECON,ioos:station:SCCF:11:1,2016-03-11T06:00:00Z,26.4679,-82.0631,2.23,7.19,1111122 
SCCF RECON,ioos:station:SCCF:11:1,2016-03-11T07:00:00Z,26.4679,-82.0631,2.31,7.04,1111122 
SCCF RECON,ioos:station:SCCF:11:1,2016-03-11T08:00:00Z,26.4679,-82.0631,2.3,6.89,1111122 
SCCF RECON,ioos:station:SCCF:11:1,2016-03-11T09:00:00Z,26.4679,-82.0631,2.17,6.94,1111122 
SCCF RECON,ioos:station:SCCF:11:1,2016-03-11T10:00:00Z,26.4679,-82.0631,1.982,6.56,1111122 
SCCF RECON,ioos:station:SCCF:11:1,2016-03-11T11:00:00Z,26.4679,-82.0631,1.85,6.33,1111122 
SCCF RECON,ioos:station:SCCF:11:1,2016-03-11T12:00:00Z,26.4679,-82.0631,1.737,6.28,1111122 
SCCF RECON,ioos:station:SCCF:11:1,2016-03-11T13:00:00Z,26.4679,-82.0631,1.64,6.21,1111122 
SCCF RECON,ioos:station:SCCF:11:1,2016-03-11T14:00:00Z,26.4679,-82.0631,1.579,6.1,1111122 
SCCF RECON,ioos:station:SCCF:11:1,2016-03-11T15:00:00Z,26.4679,-82.0631,1.652,6.71,1111122 
SCCF RECON,ioos:station:SCCF:11:1,2016-03-11T16:00:00Z,26.4679,-82.0631,1.866,7.01,1111122 
SCCF RECON,ioos:station:SCCF:11:1,2016-03-11T17:00:00Z,26.4679,-82.0631,2.041,7.04,1111122 
SCCF RECON,ioos:station:SCCF:11:1,2016-03-11T18:00:00Z,26.4679,-82.0631,2.11,6.92,1111122 
SCCF RECON,ioos:station:SCCF:11:1,2016-03-11T19:00:00Z,26.4679,-82.0631,2.165,6.97,1111122 
SCCF RECON,ioos:station:SCCF:11:1,2016-03-11T20:00:00Z,26.4679,-82.0631,2.2,6.99,1111122 
SCCF RECON,ioos:station:SCCF:11:1,2016-03-11T21:00:00Z,26.4679,-82.0631,2.144,7.34,1111122 
SCCF RECON,ioos:station:SCCF:11:1,2016-03-11T22:00:00Z,26.4679,-82.0631,1.99,8.01,1111122 
SCCF RECON,ioos:station:SCCF:11:1,2016-03-11T23:00:00Z,26.4679,-82.0631,1.83,7.55,1111122 
SCCF RECON,ioos:station:SCCF:11:1,2016-03-12T00:00:00Z,26.4679,-82.0631,1.71,7.47,1111122 
SCCF RECON,ioos:station:SCCF:11:1,2016-03-12T01:00:00Z,26.4679,-82.0631,1.599,7.33,1111122 
SCCF RECON,ioos:station:SCCF:11:1,2016-03-12T02:00:00Z,26.4679,-82.0631,1.5,7.13,1111122 
SCCF RECON,ioos:station:SCCF:11:1,2016-03-12T03:00:00Z,26.4679,-82.0631,1.51,7.05,1111122 
SCCF RECON,ioos:station:SCCF:11:1,2016-03-12T04:00:00Z,26.4679,-82.0631,1.663,6.91,1111122 
SCCF RECON,ioos:station:SCCF:11:1,2016-03-12T05:00:00Z,26.4679,-82.0631,1.85,7.1,1111122 
SCCF RECON,ioos:station:SCCF:11:1,2016-03-12T06:00:00Z,26.4679,-82.0631,1.998,6.98,1111122 
SCCF RECON,ioos:station:SCCF:11:1,2016-03-12T07:00:00Z,26.4679,-82.0631,2.11,6.91,1111122 
SCCF RECON,ioos:station:SCCF:11:1,2016-03-12T08:00:00Z,26.4679,-82.0631,2.17,6.83,1111122 
SCCF RECON,ioos:station:SCCF:11:1,2016-03-12T09:00:00Z,26.4679,-82.0631,2.14,6.75,1111122 
SCCF RECON,ioos:station:SCCF:11:1,2016-03-12T10:00:00Z,26.4679,-82.0631,2.054,6.74,1111122 
SCCF RECON,ioos:station:SCCF:11:1,2016-03-12T11:00:00Z,26.4679,-82.0631,1.919,6.46,1111122 
SCCF RECON,ioos:station:SCCF:11:1,2016-03-12T12:00:00Z,26.4679,-82.0631,1.814,6.21,1111122 
SCCF RECON,ioos:station:SCCF:11:1,2016-03-12T13:00:00Z,26.4679,-82.0631,1.75,6.07,1111122 
SCCF RECON,ioos:station:SCCF:11:1,2016-03-12T14:00:00Z,26.4679,-82.0631,1.691,6.1,1111122 
SCCF RECON,ioos:station:SCCF:11:1,2016-03-12T15:00:00Z,26.4679,-82.0631,1.714,6.48,1111122 
SCCF RECON,ioos:station:SCCF:11:1,2016-03-12T16:00:00Z,26.4679,-82.0631,1.82,6.74,1111122 
SCCF RECON,ioos:station:SCCF:11:1,2016-03-12T17:00:00Z,26.4679,-82.0631,1.972,7.26,1111122 
SCCF RECON,ioos:station:SCCF:11:1,2016-03-12T18:00:00Z,26.4679,-82.0631,2.092,6.9,1111122 
SCCF RECON,ioos:station:SCCF:11:1,2016-03-12T19:00:00Z,26.4679,-82.0631,2.172,7.28,1111122 
SCCF RECON,ioos:station:SCCF:11:1,2016-03-12T20:00:00Z,26.4679,-82.0631,2.216,7.03,1111122 
SCCF RECON,ioos:station:SCCF:11:1,2016-03-12T21:00:00Z,26.4679,-82.0631,2.211,7.03,1111122 
SCCF RECON,ioos:station:SCCF:11:1,2016-03-12T22:00:00Z,26.4679,-82.0631,2.115,7.47,1111122 
SCCF RECON,ioos:station:SCCF:11:1,2016-03-12T23:00:00Z,26.4679,-82.0631,1.964,7.55,1111122 
SCCF RECON,ioos:station:SCCF:11:1,2016-03-13T00:00:00Z,26.4679,-82.0631,1.81,7.24,1111122 
SCCF RECON,ioos:station:SCCF:11:1,2016-03-13T01:00:00Z,26.4679,-82.0631,1.671,7.07,1111122 
SCCF RECON,ioos:station:SCCF:11:1,2016-03-13T02:00:00Z,26.4679,-82.0631,1.55,6.8,1111122 
SCCF RECON,ioos:station:SCCF:11:1,2016-03-13T03:00:00Z,26.4679,-82.0631,1.456,6.63,1111122 
SCCF RECON,ioos:station:SCCF:11:1,2016-03-13T04:00:00Z,26.4679,-82.0631,1.44,6.49,1111122 
SCCF RECON,ioos:station:SCCF:11:1,2016-03-13T05:00:00Z,26.4679,-82.0631,1.59,6.69,1111122 
SCCF RECON,ioos:station:SCCF:11:1,2016-03-13T06:00:00Z,26.4679,-82.0631,1.76,6.87,1111122 
SCCF RECON,ioos:station:SCCF:11:1,2016-03-13T07:00:00Z,26.4679,-82.0631,1.89,6.72,1111122 
SCCF RECON,ioos:station:SCCF:11:1,2016-03-13T08:00:00Z,26.4679,-82.0631,1.983,6.71,1111122 
SCCF RECON,ioos:station:SCCF:11:1,2016-03-13T09:00:00Z,26.4679,-82.0631,2.03,6.78,1111122 
SCCF RECON,ioos:station:SCCF:11:1,2016-03-13T10:00:00Z,26.4679,-82.0631,2.01,6.72,1111122 
SCCF RECON,ioos:station:SCCF:11:1,2016-03-13T11:00:00Z,26.4679,-82.0631,1.931,6.47,1111122 
SCCF RECON,ioos:station:SCCF:11:1,2016-03-13T12:00:00Z,26.4679,-82.0631,1.87,6.18,1111122 
SCCF RECON,ioos:station:SCCF:11:1,2016-03-13T13:00:00Z,26.4679,-82.0631,1.792,6.2,1111122 
SCCF RECON,ioos:station:SCCF:11:1,2016-03-13T14:00:00Z,26.4679,-82.0631,1.73,6.14,1111122 
SCCF RECON,ioos:station:SCCF:11:1,2016-03-13T15:00:00Z,26.4679,-82.0631,1.718,6.24,1111122 
SCCF RECON,ioos:station:SCCF:11:1,2016-03-13T16:00:00Z,26.4679,-82.0631,1.808,6.78,1111122 
SCCF RECON,ioos:station:SCCF:11:1,2016-03-13T17:00:00Z,26.4679,-82.0631,1.92,6.92,1111122 
SCCF RECON,ioos:station:SCCF:11:1,2016-03-13T18:00:00Z,26.4679,-82.0631,2.019,7.0,1111122 
SCCF RECON,ioos:station:SCCF:11:1,2016-03-13T19:00:00Z,26.4679,-82.0631,2.103,6.93,1111122 
SCCF RECON,ioos:station:SCCF:11:1,2016-03-13T20:00:00Z,26.4679,-82.0631,2.186,7.06,1111122 
SCCF RECON,ioos:station:SCCF:11:1,2016-03-13T21:00:00Z,26.4679,-82.0631,2.231,7.03,1111122 
SCCF RECON,ioos:station:SCCF:11:1,2016-03-13T22:00:00Z,26.4679,-82.0631,2.22,6.96,1111122 
SCCF RECON,ioos:station:SCCF:11:1,2016-03-13T23:00:00Z,26.4679,-82.0631,2.125,7.42,1111122 
SCCF RECON,ioos:station:SCCF:11:1,2016-03-14T00:00:00Z,26.4679,-82.0631,1.97,7.45,1111122 
SCCF RECON,ioos:station:SCCF:11:1,2016-03-14T01:00:00Z,26.4679,-82.0631,1.842,7.3,1111122 
SCCF RECON,ioos:station:SCCF:11:1,2016-03-14T02:00:00Z,26.4679,-82.0631,1.72,7.18,1111122 
SCCF RECON,ioos:station:SCCF:11:1,2016-03-14T03:00:00Z,26.4679,-82.0631,1.591,7.13,1111122 
SCCF RECON,ioos:station:SCCF:11:1,2016-03-14T04:00:00Z,26.4679,-82.0631,1.507,6.96,1111122 
SCCF RECON,ioos:station:SCCF:11:1,2016-03-14T05:00:00Z,26.4679,-82.0631,1.52,6.8,1111122 
SCCF RECON,ioos:station:SCCF:11:1,2016-03-14T06:00:00Z,26.4679,-82.0631,1.64,6.84,1111122 
SCCF RECON,ioos:station:SCCF:11:1,2016-03-14T07:00:00Z,26.4679,-82.0631,1.791,6.83,1111122 
SCCF RECON,ioos:station:SCCF:11:1,2016-03-14T08:00:00Z,26.4679,-82.0631,1.898,6.76,1111122 
SCCF RECON,ioos:station:SCCF:11:1,2016-03-14T09:00:00Z,26.4679,-82.0631,1.97,6.55,1111122 
SCCF RECON,ioos:station:SCCF:11:1,2016-03-14T10:00:00Z,26.4679,-82.0631,2.022,6.66,1111122 
SCCF RECON,ioos:station:SCCF:11:1,2016-03-14T11:00:00Z,26.4679,-82.0631,2.02,6.48,1111122 
SCCF RECON,ioos:station:SCCF:11:1,2016-03-14T12:00:00Z,26.4679,-82.0631,1.981,6.48,1111122 
SCCF RECON,ioos:station:SCCF:11:1,2016-03-14T13:00:00Z,26.4679,-82.0631,1.919,6.49,1111122 
SCCF RECON,ioos:station:SCCF:11:1,2016-03-14T14:00:00Z,26.4679,-82.0631,1.861,6.32,1111122 
SCCF RECON,ioos:station:SCCF:11:1,2016-03-14T15:00:00Z,26.4679,-82.0631,1.829,6.25,1111122 
SCCF RECON,ioos:station:SCCF:11:1,2016-03-14T16:00:00Z,26.4679,-82.0631,1.801,6.52,1111122 
SCCF RECON,ioos:station:SCCF:11:1,2016-03-14T17:00:00Z,26.4679,-82.0631,1.835,6.73,1111122 
SCCF RECON,ioos:station:SCCF:11:1,2016-03-14T18:00:00Z,26.4679,-82.0631,1.922,7.19,1111122 
SCCF RECON,ioos:station:SCCF:11:1,2016-03-14T19:00:00Z,26.4679,-82.0631,2.019,7.4,1111122 
SCCF RECON,ioos:station:SCCF:11:1,2016-03-14T20:00:00Z,26.4679,-82.0631,2.079,7.5,1111122 
SCCF RECON,ioos:station:SCCF:11:1,2016-03-14T21:00:00Z,26.4679,-82.0631,2.11,7.32,1111122 
SCCF RECON,ioos:station:SCCF:11:1,2016-03-14T22:00:00Z,26.4679,-82.0631,2.101,7.15,1111122 
SCCF RECON,ioos:station:SCCF:11:1,2016-03-14T23:00:00Z,26.4679,-82.0631,2.07,7.54,1111122 
SCCF RECON,ioos:station:SCCF:11:1,2016-03-15T00:00:00Z,26.4679,-82.0631,1.99,7.52,1111122 
SCCF RECON,ioos:station:SCCF:11:1,2016-03-15T01:00:00Z,26.4679,-82.0631,1.861,7.63,1111122 
SCCF RECON,ioos:station:SCCF:11:1,2016-03-15T02:00:00Z,26.4679,-82.0631,1.737,7.4,1111122 
SCCF RECON,ioos:station:SCCF:11:1,2016-03-15T03:00:00Z,26.4679,-82.0631,1.61,7.19,1111122 
SCCF RECON,ioos:station:SCCF:11:1,2016-03-15T04:00:00Z,26.4679,-82.0631,1.496,6.91,1111122 
SCCF RECON,ioos:station:SCCF:11:1,2016-03-15T05:00:00Z,26.4679,-82.0631,1.41,6.7,1111122 
SCCF RECON,ioos:station:SCCF:11:1,2016-03-15T06:00:00Z,26.4679,-82.0631,1.409,6.5,1111122 
SCCF RECON,ioos:station:SCCF:11:1,2016-03-15T07:00:00Z,26.4679,-82.0631,1.5,6.47,1111122 
SCCF RECON,ioos:station:SCCF:11:1,2016-03-15T08:00:00Z,26.4679,-82.0631,1.64,6.72,1111122 
SCCF RECON,ioos:station:SCCF:11:1,2016-03-15T09:00:00Z,26.4679,-82.0631,1.73,6.69,1111122 
SCCF RECON,ioos:station:SCCF:11:1,2016-03-15T10:00:00Z,26.4679,-82.0631,1.81,6.71,1111122 
SCCF RECON,ioos:station:SCCF:11:1,2016-03-15T11:00:00Z,26.4679,-82.0631,1.87,6.5,1111122 
SCCF RECON,ioos:station:SCCF:11:1,2016-03-15T12:00:00Z,26.4679,-82.0631,1.904,6.51,1111122 
SCCF RECON,ioos:station:SCCF:11:1,2016-03-15T13:00:00Z,26.4679,-82.0631,1.9,6.15,1111122 
SCCF RECON,ioos:station:SCCF:11:1,2016-03-15T14:00:00Z,26.4679,-82.0631,1.88,6.16,1111122 
SCCF RECON,ioos:station:SCCF:11:1,2016-03-15T15:00:00Z,26.4679,-82.0631,1.85,6.42,1111122 
SCCF RECON,ioos:station:SCCF:11:1,2016-03-15T16:00:00Z,26.4679,-82.0631,1.829,6.53,1111122 
SCCF RECON,ioos:station:SCCF:11:1,2016-03-15T17:00:00Z,26.4679,-82.0631,1.809,6.57,1111122 
SCCF RECON,ioos:station:SCCF:11:1,2016-03-15T18:00:00Z,26.4679,-82.0631,1.828,6.55,1111122 
SCCF RECON,ioos:station:SCCF:11:1,2016-03-15T19:00:00Z,26.4679,-82.0631,1.881,7.12,1111122 
SCCF RECON,ioos:station:SCCF:11:1,2016-03-15T20:00:00Z,26.4679,-82.0631,1.961,7.91,1111122 
SCCF RECON,ioos:station:SCCF:11:1,2016-03-15T21:00:00Z,26.4679,-82.0631,2.037,7.87,1111122 
SCCF RECON,ioos:station:SCCF:11:1,2016-03-15T22:00:00Z,26.4679,-82.0631,2.069,7.93,1111122 
SCCF RECON,ioos:station:SCCF:11:1,2016-03-15T23:00:00Z,26.4679,-82.0631,2.08,7.47,1111122 
SCCF RECON,ioos:station:SCCF:11:1,2016-03-16T00:00:00Z,26.4679,-82.0631,2.04,7.0,1111122 
SCCF RECON,ioos:station:SCCF:11:1,2016-03-16T01:00:00Z,26.4679,-82.0631,1.972,7.54,1111122 
SCCF RECON,ioos:station:SCCF:11:1,2016-03-16T02:00:00Z,26.4679,-82.0631,1.88,7.38,1111122 
SCCF RECON,ioos:station:SCCF:11:1,2016-03-16T03:00:00Z,26.4679,-82.0631,1.77,7.09,1111122 
SCCF RECON,ioos:station:SCCF:11:1,2016-03-16T04:00:00Z,26.4679,-82.0631,1.649,6.83,1111122 
SCCF RECON,ioos:station:SCCF:11:1,2016-03-16T05:00:00Z,26.4679,-82.0631,1.523,6.62,1111122 
SCCF RECON,ioos:station:SCCF:11:1,2016-03-16T06:00:00Z,26.4679,-82.0631,1.44,6.35,1111122 
SCCF RECON,ioos:station:SCCF:11:1,2016-03-16T07:00:00Z,26.4679,-82.0631,1.43,6.31,1111122 
SCCF RECON,ioos:station:SCCF:11:1,2016-03-16T08:00:00Z,26.4679,-82.0631,1.481,6.01,1111122 
SCCF RECON,ioos:station:SCCF:11:1,2016-03-16T09:00:00Z,26.4679,-82.0631,1.589,5.99,1111122 
SCCF RECON,ioos:station:SCCF:11:1,2016-03-16T10:00:00Z,26.4679,-82.0631,1.69,6.26,1111122 
SCCF RECON,ioos:station:SCCF:11:1,2016-03-16T11:00:00Z,26.4679,-82.0631,1.793,6.33,1111122 
SCCF RECON,ioos:station:SCCF:11:1,2016-03-16T12:00:00Z,26.4679,-82.0631,1.88,6.42,1111122 
SCCF RECON,ioos:station:SCCF:11:1,2016-03-16T13:00:00Z,26.4679,-82.0631,1.936,6.17,1111122 
SCCF RECON,ioos:station:SCCF:11:1,2016-03-16T14:00:00Z,26.4679,-82.0631,1.95,6.03,1111122 
SCCF RECON,ioos:station:SCCF:11:1,2016-03-16T15:00:00Z,26.4679,-82.0631,1.941,6.01,1111122 
SCCF RECON,ioos:station:SCCF:11:1,2016-03-16T16:00:00Z,26.4679,-82.0631,1.912,6.38,1111122 
SCCF RECON,ioos:station:SCCF:11:1,2016-03-16T17:00:00Z,26.4679,-82.0631,1.876,6.74,1111122 
SCCF RECON,ioos:station:SCCF:11:1,2016-03-16T18:00:00Z,26.4679,-82.0631,1.841,6.72,1111122 
SCCF RECON,ioos:station:SCCF:11:1,2016-03-16T19:00:00Z,26.4679,-82.0631,1.83,7.14,1111122 
SCCF RECON,ioos:station:SCCF:11:1,2016-03-16T20:00:00Z,26.4679,-82.0631,1.86,8.3,1111122 
SCCF RECON,ioos:station:SCCF:11:1,2016-03-16T21:00:00Z,26.4679,-82.0631,1.922,8.15,1111122 
SCCF RECON,ioos:station:SCCF:11:1,2016-03-16T22:00:00Z,26.4679,-82.0631,1.99,7.97,1111122 
SCCF RECON,ioos:station:SCCF:11:1,2016-03-16T23:00:00Z,26.4679,-82.0631,2.05,7.73,1111122 
SCCF RECON,ioos:station:SCCF:11:1,2016-03-17T00:00:00Z,26.4679,-82.0631,2.06,7.42,1111122 
SCCF RECON,ioos:station:SCCF:11:1,2016-03-17T01:00:00Z,26.4679,-82.0631,2.058,6.42,1111122 
SCCF RECON,ioos:station:SCCF:11:1,2016-03-17T02:00:00Z,26.4679,-82.0631,2.04,6.99,1111122 
SCCF RECON,ioos:station:SCCF:11:1,2016-03-17T03:00:00Z,26.4679,-82.0631,1.94,7.54,1111122 
SCCF RECON,ioos:station:SCCF:11:1,2016-03-17T04:00:00Z,26.4679,-82.0631,1.82,7.02,1111122 
SCCF RECON,ioos:station:SCCF:11:1,2016-03-17T05:00:00Z,26.4679,-82.0631,1.68,6.74,1111122 
SCCF RECON,ioos:station:SCCF:11:1,2016-03-17T06:00:00Z,26.4679,-82.0631,1.57,6.46,1111122 
SCCF RECON,ioos:station:SCCF:11:1,2016-03-17T07:00:00Z,26.4679,-82.0631,1.475,6.23,1111122 
SCCF RECON,ioos:station:SCCF:11:1,2016-03-17T08:00:00Z,26.4679,-82.0631,1.42,6.13,1111122 
SCCF RECON,ioos:station:SCCF:11:1,2016-03-17T09:00:00Z,26.4679,-82.0631,1.45,5.84,1111122 
SCCF RECON,ioos:station:SCCF:11:1,2016-03-17T10:00:00Z,26.4679,-82.0631,1.567,5.94,1111122 
SCCF RECON,ioos:station:SCCF:11:1,2016-03-17T11:00:00Z,26.4679,-82.0631,1.7,6.18,1111122 
SCCF RECON,ioos:station:SCCF:11:1,2016-03-17T12:00:00Z,26.4679,-82.0631,1.783,6.24,1111122 
SCCF RECON,ioos:station:SCCF:11:1,2016-03-17T13:00:00Z,26.4679,-82.0631,1.879,6.21,1111122 
SCCF RECON,ioos:station:SCCF:11:1,2016-03-17T14:00:00Z,26.4679,-82.0631,1.946,6.0,1111122 
SCCF RECON,ioos:station:SCCF:11:1,2016-03-17T15:00:00Z,26.4679,-82.0631,1.977,6.05,1111122 
SCCF RECON,ioos:station:SCCF:11:1,2016-03-17T16:00:00Z,26.4679,-82.0631,1.962,6.29,1111122 
SCCF RECON,ioos:station:SCCF:11:1,2016-03-17T17:00:00Z,26.4679,-82.0631,1.93,6.33,1111122 
SCCF RECON,ioos:station:SCCF:11:1,2016-03-17T18:00:00Z,26.4679,-82.0631,1.869,6.32,1111122 
SCCF RECON,ioos:station:SCCF:11:1,2016-03-17T19:00:00Z,26.4679,-82.0631,1.83,6.56,1111122 
SCCF RECON,ioos:station:SCCF:11:1,2016-03-17T20:00:00Z,26.4679,-82.0631,1.81,6.31,1111122 
SCCF RECON,ioos:station:SCCF:11:1,2016-03-17T21:00:00Z,26.4679,-82.0631,1.84,7.71,1111122 
SCCF RECON,ioos:station:SCCF:11:1,2016-03-17T22:00:00Z,26.4679,-82.0631,1.919,8.05,1111122 
SCCF RECON,ioos:station:SCCF:11:1,2016-03-17T23:00:00Z,26.4679,-82.0631,1.99,7.5,1111122 
SCCF RECON,ioos:station:SCCF:11:1,2016-03-18T00:00:00Z,26.4679,-82.0631,2.046,7.75,1111122 
SCCF RECON,ioos:station:SCCF:11:1,2016-03-18T01:00:00Z,26.4679,-82.0631,2.089,6.74,1111122 
SCCF RECON,ioos:station:SCCF:11:1,2016-03-18T02:00:00Z,26.4679,-82.0631,2.11,6.62,1111122 
SCCF RECON,ioos:station:SCCF:11:1,2016-03-18T03:00:00Z,26.4679,-82.0631,2.08,6.45,1111122 
SCCF RECON,ioos:station:SCCF:11:1,2016-03-18T04:00:00Z,26.4679,-82.0631,2.0,6.53,1111122 
SCCF RECON,ioos:station:SCCF:11:1,2016-03-18T05:00:00Z,26.4679,-82.0631,1.889,7.34,1111122 
SCCF RECON,ioos:station:SCCF:11:1,2016-03-18T06:00:00Z,26.4679,-82.0631,1.76,6.67,1111122 
SCCF RECON,ioos:station:SCCF:11:1,2016-03-18T07:00:00Z,26.4679,-82.0631,1.638,6.55,1111122 
SCCF RECON,ioos:station:SCCF:11:1,2016-03-18T08:00:00Z,26.4679,-82.0631,1.523,6.19,1111122 
SCCF RECON,ioos:station:SCCF:11:1,2016-03-18T09:00:00Z,26.4679,-82.0631,1.463,5.88,1111122 
SCCF RECON,ioos:station:SCCF:11:1,2016-03-18T10:00:00Z,26.4679,-82.0631,1.49,5.91,1111122 
SCCF RECON,ioos:station:SCCF:11:1,2016-03-18T11:00:00Z,26.4679,-82.0631,1.599,5.75,1111122 
SCCF RECON,ioos:station:SCCF:11:1,2016-03-18T12:00:00Z,26.4679,-82.0631,1.738,6.05,1111122 
SCCF RECON,ioos:station:SCCF:11:1,2016-03-18T13:00:00Z,26.4679,-82.0631,1.856,6.16,1111122 
SCCF RECON,ioos:station:SCCF:11:1,2016-03-18T14:00:00Z,26.4679,-82.0631,1.943,6.29,1111122 
SCCF RECON,ioos:station:SCCF:11:1,2016-03-18T15:00:00Z,26.4679,-82.0631,2.0,6.14,1111122 
SCCF RECON,ioos:station:SCCF:11:1,2016-03-18T16:00:00Z,26.4679,-82.0631,2.022,5.98,1111122 
SCCF RECON,ioos:station:SCCF:11:1,2016-03-18T17:00:00Z,26.4679,-82.0631,1.99,6.01,1111122 
SCCF RECON,ioos:station:SCCF:11:1,2016-03-18T18:00:00Z,26.4679,-82.0631,1.927,6.06,1111122 
SCCF RECON,ioos:station:SCCF:11:1,2016-03-18T19:00:00Z,26.4679,-82.0631,1.881,6.57,1111122 
SCCF RECON,ioos:station:SCCF:11:1,2016-03-18T20:00:00Z,26.4679,-82.0631,1.829,6.76,1111122 
SCCF RECON,ioos:station:SCCF:11:1,2016-03-18T21:00:00Z,26.4679,-82.0631,1.795,7.22,1111122 
SCCF RECON,ioos:station:SCCF:11:1,2016-03-18T22:00:00Z,26.4679,-82.0631,1.791,7.0,1111122 
SCCF RECON,ioos:station:SCCF:11:1,2016-03-18T23:00:00Z,26.4679,-82.0631,1.846,7.39,1111122 
SCCF RECON,ioos:station:SCCF:11:1,2016-03-19T00:00:00Z,26.4679,-82.0631,1.995,7.31,1111122 
SCCF RECON,ioos:station:SCCF:11:1,2016-03-19T01:00:00Z,26.4679,-82.0631,2.06,7.15,1111122 
SCCF RECON,ioos:station:SCCF:11:1,2016-03-19T02:00:00Z,26.4679,-82.0631,2.117,7.05,1111122 
SCCF RECON,ioos:station:SCCF:11:1,2016-03-19T03:00:00Z,26.4679,-82.0631,2.13,6.76,1111122 
SCCF RECON,ioos:station:SCCF:11:1,2016-03-19T04:00:00Z,26.4679,-82.0631,2.096,6.46,1111122 
SCCF RECON,ioos:station:SCCF:11:1,2016-03-19T05:00:00Z,26.4679,-82.0631,2.03,6.61,1111122 
SCCF RECON,ioos:station:SCCF:11:1,2016-03-19T06:00:00Z,26.4679,-82.0631,1.92,6.94,1111122 
SCCF RECON,ioos:station:SCCF:11:1,2016-03-19T07:00:00Z,26.4679,-82.0631,1.802,6.33,1111122 
SCCF RECON,ioos:station:SCCF:11:1,2016-03-19T08:00:00Z,26.4679,-82.0631,1.66,6.14,1111122 
SCCF RECON,ioos:station:SCCF:11:1,2016-03-19T09:00:00Z,26.4679,-82.0631,1.54,5.82,1111122 
SCCF RECON,ioos:station:SCCF:11:1,2016-03-19T10:00:00Z,26.4679,-82.0631,1.478,5.46,1111122 
SCCF RECON,ioos:station:SCCF:11:1,2016-03-19T11:00:00Z,26.4679,-82.0631,1.548,5.25,1111122 
SCCF RECON,ioos:station:SCCF:11:1,2016-03-19T12:00:00Z,26.4679,-82.0631,1.7,5.52,1111122 
SCCF RECON,ioos:station:SCCF:11:1,2016-03-19T13:00:00Z,26.4679,-82.0631,1.81,6.23,1111122 
SCCF RECON,ioos:station:SCCF:11:1,2016-03-19T14:00:00Z,26.4679,-82.0631,1.9,6.16,1111122 
SCCF RECON,ioos:station:SCCF:11:1,2016-03-19T15:00:00Z,26.4679,-82.0631,2.026,6.18,1111122 
SCCF RECON,ioos:station:SCCF:11:1,2016-03-19T16:00:00Z,26.4679,-82.0631,2.13,6.35,1111122 
SCCF RECON,ioos:station:SCCF:11:1,2016-03-19T17:00:00Z,26.4679,-82.0631,2.168,6.54,1111122 
SCCF RECON,ioos:station:SCCF:11:1,2016-03-19T18:00:00Z,26.4679,-82.0631,2.148,6.68,1111122 
SCCF RECON,ioos:station:SCCF:11:1,2016-03-19T19:00:00Z,26.4679,-82.0631,2.069,6.58,1111122 
SCCF RECON,ioos:station:SCCF:11:1,2016-03-19T20:00:00Z,26.4679,-82.0631,1.868,6.62,1111122 
SCCF RECON,ioos:station:SCCF:11:1,2016-03-19T21:00:00Z,26.4679,-82.0631,1.729,6.56,1111122 
SCCF RECON,ioos:station:SCCF:11:1,2016-03-19T22:00:00Z,26.4679,-82.0631,1.7,6.77,1111122 
SCCF RECON,ioos:station:SCCF:11:1,2016-03-19T23:00:00Z,26.4679,-82.0631,1.791,6.91,1111122 
SCCF RECON,ioos:station:SCCF:11:1,2016-03-20T00:00:00Z,26.4679,-82.0631,1.98,6.74,1111122 
SCCF RECON,ioos:station:SCCF:11:1,2016-03-20T01:00:00Z,26.4679,-82.0631,2.11,6.8,1111122 
SCCF RECON,ioos:station:SCCF:11:1,2016-03-20T02:00:00Z,26.4679,-82.0631,2.11,6.67,1111122 
SCCF RECON,ioos:station:SCCF:11:1,2016-03-20T03:00:00Z,26.4679,-82.0631,2.033,6.35,1111122 
SCCF RECON,ioos:station:SCCF:11:1,2016-03-20T04:00:00Z,26.4679,-82.0631,2.01,6.23,1111122 
SCCF RECON,ioos:station:SCCF:11:1,2016-03-20T05:00:00Z,26.4679,-82.0631,2.04,6.23,1111122 
SCCF RECON,ioos:station:SCCF:11:1,2016-03-20T06:00:00Z,26.4679,-82.0631,2.01,6.07,1111122 
SCCF RECON,ioos:station:SCCF:11:1,2016-03-20T07:00:00Z,26.4679,-82.0631,1.88,6.06,1111122 
SCCF RECON,ioos:station:SCCF:11:1,2016-03-20T08:00:00Z,26.4679,-82.0631,1.72,5.24,1111122 
SCCF RECON,ioos:station:SCCF:11:1,2016-03-20T09:00:00Z,26.4679,-82.0631,1.59,5.08,1111122 
SCCF RECON,ioos:station:SCCF:11:1,2016-03-20T10:00:00Z,26.4679,-82.0631,1.5,5.17,1111122 
SCCF RECON,ioos:station:SCCF:11:1,2016-03-20T11:00:00Z,26.4679,-82.0631,1.441,4.94,1111122 
SCCF RECON,ioos:station:SCCF:11:1,2016-03-20T12:00:00Z,26.4679,-82.0631,1.54,4.95,1111122 
SCCF RECON,ioos:station:SCCF:11:1,2016-03-20T13:00:00Z,26.4679,-82.0631,1.689,5.13,1111122 
SCCF RECON,ioos:station:SCCF:11:1,2016-03-20T14:00:00Z,26.4679,-82.0631,1.841,5.57,1111122 
SCCF RECON,ioos:station:SCCF:11:1,2016-03-20T15:00:00Z,26.4679,-82.0631,1.965,5.95,1111122 
SCCF RECON,ioos:station:SCCF:11:1,2016-03-20T16:00:00Z,26.4679,-82.0631,2.04,5.69,1111122 
SCCF RECON,ioos:station:SCCF:11:1,2016-03-20T17:00:00Z,26.4679,-82.0631,2.065,5.64,1111122 